Starlink 30290

operational
NORAD ID: 57858 Int'l Des: 2023-141 Owner: SPXS Country: US Constellation: starlink
LEOCIRCULAR

关于 Starlink 30290

正在加载描述...

实时位置

正在加载3D地球...

即将过境

高度历史

Altitude vs Time

uPlot chart will show altitude changes over time

两行轨道根数

1 57858U 23141U 25349.90991768 .00002127 00000-0 83964-4 0 9992
2 57858 53.1618 313.0824 0001503 103.2263 256.8906 15.30183613127508
Epoch: Dec 15, 2025 • Age: 20 hours

当前状态

高度 488.7 km
速度 7.62 km/s
星下点 -39.25°S, 176.25°E
发射日期 Sep 12, 2023
运行时间 2.2 years
类型 internet

技术详情

分类 Payload
质量 730.00 kg
干质量 700.00 kg
总质量 730.00 kg
长度 0.30 m
直径 4.10 m
跨度 29.00 m
形状 Box + pan
制造商 SPXS
平台类型 Starlink V2M
阶段状态 In Orbit
所有者/国家 SPXS/US

大型星座

Loading constellations...